Weather History for KPSX - January, 2015

Change the Weather History Date:

Wednesday, January 28, 2015

  Actual Average (WUND) Record (WUND)
Temperature  
Mean Temperature 59 °F -  
Max Temperature 70 °F - - (-1)
Min Temperature 48 °F - - (-1)
Degree Days  
Heating Degree Days 6    
Growing Degree Days 9 (Base 50)    
Moisture  
Dew Point 53 °F    
Average Humidity 85    
Maximum Humidity 100    
Minimum Humidity 57    
Precipitation  
Precipitation 0.00 in - - ()
Sea Level Pressure  
Sea Level Pressure 30.16 in    
Wind  
Wind Speed 5 mph (South)    
Max Wind Speed 15 mph    
Max Gust Speed -    
Visibility 8 miles    
Events Fog    
Averages and records for this station are not official NWS values.
T = Trace of Precipitation, MM = Missing Value Source: NWS Daily Summary

Daily Weather History Graph

Daily Weather History Graph

Search for Another Location

Airport or City:

Trip Planner

Search our weather history database for the weather conditions in past years. The results will help you decide how hot, cold, wet, or windy it might be!

Date:

Astronomy

Jan. 28, 2015 Rise Set
Actual Time 7:15 AM CST 6:00 PM CST
Civil Twilight 6:50 AM CST 6:25 PM CST
Nautical Twilight 6:21 AM CST 6:54 PM CST
Astronomical Twilight 5:53 AM CST 7:22 PM CST
Moon 1:04 PM CST (1/28) 1:50 AM CST (1/28)
Length of Visible Light 11h 35m
Length of Day
10h 45m
Waxing Gibbous, 66% of the Moon is Illuminated
Jan 28
Waxing Gibbous
Feb 3
Full
Feb 11
Last Quarter
Feb 18
New
Feb 25
First Quarter

Hourly Weather History & Observations

Time (CST) Temp. Dew Point Humidity Pressure Visibility Wind Dir Wind Speed Gust Speed Precip Events Conditions
12:53 AM 55.9 °F 48.9 °F 77% 30.15 in 10.0 mi WSW 4.6 mph - N/A   Unknown
1:53 AM 55.0 °F 48.9 °F 80% 30.14 in 10.0 mi SW 3.5 mph - N/A   Unknown
2:53 AM 55.0 °F 50.0 °F 83% 30.15 in 10.0 mi WSW 3.5 mph - N/A   Unknown
3:53 AM 54.0 °F 50.0 °F 86% 30.14 in 10.0 mi WSW 3.5 mph - N/A   Clear
4:53 AM 55.0 °F 50.0 °F 83% 30.14 in 10.0 mi WSW 3.5 mph - N/A   Unknown
5:53 AM 48.9 °F 46.0 °F 90% 30.15 in 10.0 mi SSW 3.5 mph - N/A   Unknown
6:53 AM 48.0 °F 46.0 °F 93% 30.16 in - North - - N/A   Unknown
7:21 AM 48.0 °F 46.0 °F 93% 30.17 in 0.8 mi East 4.6 mph - N/A   Mist
7:41 AM 48.0 °F 46.9 °F 96% 30.17 in 2.0 mi ESE 4.6 mph - N/A   Mist
7:49 AM 48.2 °F 48.2 °F 100% 30.17 in 7.0 mi ESE 3.5 mph - N/A   Unknown
7:53 AM 50.0 °F 48.0 °F 93% 30.18 in 9.0 mi SE 3.5 mph - N/A   Unknown
8:53 AM 59.0 °F 54.0 °F 83% 30.20 in 10.0 mi SSE 3.5 mph - N/A   Unknown
9:53 AM 62.1 °F 50.0 °F 65% 30.22 in 10.0 mi South 5.8 mph - N/A   Clear
10:53 AM 66.0 °F 51.1 °F 59% 30.23 in 10.0 mi South 6.9 mph - N/A   Clear
11:53 AM 66.9 °F 51.1 °F 57% 30.22 in 10.0 mi South 8.1 mph - N/A   Clear
12:53 PM 68.0 °F 55.0 °F 63% 30.18 in 10.0 mi SSW 9.2 mph - N/A   Clear
1:53 PM 70.0 °F 60.1 °F 71% 30.16 in 10.0 mi South 15.0 mph - N/A   Clear
2:53 PM 69.1 °F 60.1 °F 73% 30.16 in 10.0 mi South 11.5 mph - N/A   Clear
3:53 PM 66.9 °F 60.1 °F 79% 30.13 in 10.0 mi SSE 13.8 mph - N/A   Clear
4:53 PM 64.9 °F 57.9 °F 78% 30.13 in 10.0 mi SSE 12.7 mph - N/A   Clear
5:53 PM 62.1 °F 57.0 °F 84% 30.14 in 10.0 mi SE 6.9 mph - N/A   Clear
6:53 PM 60.1 °F 57.0 °F 90% 30.14 in 10.0 mi SE 6.9 mph - N/A   Clear
7:53 PM 59.0 °F 57.0 °F 93% 30.16 in 10.0 mi SE 6.9 mph - N/A   Clear
8:53 PM 59.0 °F 57.0 °F 93% 30.14 in 10.0 mi SE 8.1 mph - N/A   Clear
9:53 PM 57.0 °F 55.9 °F 96% 30.15 in 10.0 mi SSE 6.9 mph - N/A   Clear
10:51 PM 57.2 °F 55.4 °F 94% 30.17 in 1.8 mi Calm Calm - N/A   Clear
10:53 PM 57.0 °F 55.9 °F 96% 30.17 in 1.2 mi Calm Calm - N/A   Clear
11:04 PM 55.9 °F 55.9 °F 100% 30.17 in 0.5 mi Calm Calm - N/A Fog Fog
11:24 PM 55.9 °F 55.0 °F 97% 30.17 in 0.2 mi SSE 6.9 mph - N/A Fog Fog
11:36 PM 57.0 °F 55.9 °F 96% 30.17 in 2.0 mi SSE 5.8 mph - N/A   Partly Cloudy
11:43 PM 57.9 °F 57.0 °F 97% 30.17 in 10.0 mi South 5.8 mph - N/A   Partly Cloudy
11:53 PM 59.0 °F 57.9 °F 96% 30.17 in 10.0 mi South 4.6 mph - N/A   Partly Cloudy